Kaltag, AK

12:53 PM AKST on November 21, 2017 (GMT -0900)
Kaltag

Weather History for PAKV - February, 2012

Change the Weather History Date:

Monday, February 13, 2012

  Actual Average (PAGA) Record (PAGA)
Temperature  
Mean Temperature 18 °F -  
Max Temperature 27 °F 3 °F 36 °F (1980)
Min Temperature 8 °F -13 °F -48 °F (1976)
Degree Days  
Heating Degree Days 48    
Moisture  
Dew Point 14 °F    
Average Humidity 79    
Maximum Humidity 100    
Minimum Humidity 63    
Precipitation  
Precipitation 0.00 in - - ()
Sea Level Pressure  
Sea Level Pressure 29.34 in    
Wind  
Wind Speed 3 mph (ENE)    
Max Wind Speed 9 mph    
Max Gust Speed -    
Visibility 10 miles    
Events      
Averages and records for this station are not official NWS values.
T = Trace of Precipitation, MM = Missing Value Source: NWS Daily Summary

Daily Weather History Graph

Daily Weather History Graph

Search for Another Location

Airport or City:

Trip Planner

Search our weather history database for the weather conditions in past years. The results will help you decide how hot, cold, wet, or windy it might be!

Date:

Astronomy

Feb. 13, 2012 Rise Set
Actual Time 9:38 AM AKST 6:00 PM AKST
Civil Twilight 8:46 AM AKST 6:53 PM AKST
Nautical Twilight 7:49 AM AKST 7:50 PM AKST
Astronomical Twilight 6:54 AM AKST 8:45 PM AKST
Moon 3:01 AM AKST (2/13) 9:47 AM AKST (2/13)
Length of Visible Light 10h 07m
Length of Day
8h 22m
Waning Gibbous, 60% of the Moon is Illuminated
Feb 13
Waning Gibbous
Feb 14
Last Quarter
Feb 21
New
Feb 29
First Quarter
Mar 8
Full

Hourly Weather History & Observations

Time (AKST) Temp. Windchill Dew Point Humidity Pressure Visibility Wind Dir Wind Speed Gust Speed Precip Events Conditions
12:14 AM 12.2 °F 6.1 °F 8.6 °F 85% 29.29 in 10.0 mi SSW 3.5 mph - N/A   Scattered Clouds
12:22 AM 10.4 °F - 10.4 °F 100% 29.29 in 7.0 mi Calm Calm - N/A   Mostly Cloudy
12:53 AM 8.1 °F - 6.1 °F 92% 29.31 in 10.0 mi Calm Calm - N/A   Overcast
1:14 AM 8.6 °F 2.0 °F 6.8 °F 92% 29.30 in 10.0 mi SW 3.5 mph - N/A   Overcast
1:53 AM 10.0 °F - 8.1 °F 92% 29.31 in 10.0 mi Calm Calm - N/A   Overcast
2:53 AM 14.0 °F - 10.9 °F 88% 29.29 in 10.0 mi Calm Calm - N/A   Overcast
3:53 AM 23.0 °F 13.9 °F 18.0 °F 81% 29.28 in 10.0 mi NE 8.1 mph - N/A   Overcast
4:53 AM 26.1 °F 16.8 °F 18.0 °F 71% 29.28 in 10.0 mi NNE 9.2 mph - N/A   Overcast
5:53 AM 27.0 °F 23.0 °F 19.0 °F 72% 29.28 in 10.0 mi East 3.5 mph - 0.00 in   Overcast
6:53 AM 27.0 °F 18.7 °F 19.0 °F 72% 29.27 in 10.0 mi NNE 8.1 mph - 0.00 in   Overcast
7:53 AM 24.1 °F 18.2 °F 17.1 °F 75% 29.27 in 10.0 mi NE 4.6 mph - 0.00 in   Partly Cloudy
8:53 AM 25.0 °F 17.1 °F 17.1 °F 72% 29.29 in 10.0 mi ENE 6.9 mph - N/A   Clear
9:53 AM 23.0 °F 17.0 °F 16.0 °F 74% 29.30 in 10.0 mi NE 4.6 mph - N/A   Mostly Cloudy
10:53 AM 25.0 °F 17.1 °F 16.0 °F 69% 29.32 in 10.0 mi NE 6.9 mph - N/A   Overcast
11:53 AM 23.0 °F 14.7 °F 16.0 °F 74% 29.34 in 10.0 mi NE 6.9 mph - N/A   Overcast
12:53 PM 25.0 °F 17.1 °F 16.0 °F 69% 29.34 in 10.0 mi ENE 6.9 mph - 0.00 in   Clear
1:53 PM 27.0 °F 23.0 °F 16.0 °F 63% 29.35 in 10.0 mi East 3.5 mph - 0.00 in   Clear
2:53 PM 23.0 °F 17.0 °F 15.1 °F 72% 29.36 in 10.0 mi NE 4.6 mph - 0.00 in   Mostly Cloudy
3:53 PM 24.1 °F - 16.0 °F 71% 29.36 in 10.0 mi Calm Calm - 0.00 in   Overcast
4:53 PM 25.0 °F - 17.1 °F 72% 29.37 in 10.0 mi Calm Calm - 0.00 in   Mostly Cloudy
5:53 PM 24.1 °F 19.7 °F 16.0 °F 71% 29.37 in 10.0 mi East 3.5 mph - 0.00 in   Overcast
6:53 PM 21.0 °F - 16.0 °F 81% 29.39 in 10.0 mi Calm Calm - 0.00 in   Overcast
7:53 PM 16.0 °F - 12.9 °F 88% 29.41 in 10.0 mi Calm Calm - 0.00 in   Overcast
8:53 PM 18.0 °F - 15.1 °F 88% 29.42 in 10.0 mi Calm Calm - 0.00 in   Overcast
9:53 PM 18.0 °F - 15.1 °F 88% 29.43 in 10.0 mi Calm Calm - N/A   Overcast
10:53 PM 18.0 °F - 14.0 °F 84% 29.45 in 10.0 mi Calm Calm - N/A   Overcast
11:53 PM 18.0 °F - 15.1 °F 88% 29.47 in 10.0 mi Calm Calm - N/A   Overcast